Regional Weather Roundup
Issued by NWS

Home | Current Version | Previous Version | Text Only | Print | Product List | Glossary On
Versions: 1 2 3 4 5 6 7 8 9 10 11 12 13 14 15 16 17 18 19 20 21 22 23 24 25 26 27 28 29 30 31 32 33 34 35 36 37 38 39 40 41 42 43 44 45 46 47 48 49 50
000
ASUS44 KFWD 301903
RWRTX
NORTH TEXAS HOURLY WEATHER ROUNDUP
NATIONAL WEATHER SERVICE FORT WORTH TX
200 PM CDT SAT MAY 30 2015

NOTE: "FAIR" INDICATES FEW OR NO CLOUDS BELOW 12,000 FEET WITH NO
SIGNIFICANT WEATHER AND/OR OBSTRUCTIONS TO VISIBILITY.

TXZ118-119-302000-
DALLAS/FORT WORTH METROPLEX

CITY           SKY/WX    TMP DP  RH WIND       PRES   REMARKS
DFW AIRPORT    CLOUDY    72  66  81 N12       30.08S
DALLAS LOVE    CLOUDY    73  67  81 N8        30.08F
FTW MEACHAM      N/A    N/A N/A N/A MISG      30.08F
DAL-EXECUTIVE  CLOUDY    75  68  78 N9        30.07F
FTW-ALLIANCE   CLOUDY    76  67  73 N13       30.09S
FTW-NAS-JRB    CLOUDY    75  66  73 N9        30.09F
FTW-SPINKS     PTSUNNY   75  66  73 NE9       30.10F
ARLINGTON      LGT RAIN  75  64  68 N6        30.08F
GRAND PRAIRIE  SUNNY     73  66  78 N5        30.09
ADDISON        CLOUDY    72  68  88 N6        30.09F
MESQUITE       CLOUDY    73  68  83 NW10      30.07
LANCASTER      PTSUNNY   78  65  64 NW13      30.08F
$$

TXZ091>094-102>105-117-120-121-131>134-302000-
NORTH CENTRAL TEXAS

CITY           SKY/WX    TMP DP  RH WIND       PRES   REMARKS
SHRMAN/DENISON CLOUDY    67  66  94 N14       30.11S
GAINESVILLE    CLOUDY    67  64  89 NW12      30.13R
BOWIE          CLOUDY    65  64  96 NW10      30.13F
BRIDGEPORT     PTSUNNY   70  65  85 NW9G17    30.15S
DECATUR        CLOUDY    67  63  86 NW7       30.12F
DENTON         CLOUDY    73  65  75 N9        30.09F
MCKINNEY       CLOUDY    72  67  84 NW9       30.08S
GREENVILLE       N/A     77  64  65 N10       30.06F
ROCKWALL       LGT RAIN  73  69  87 N13       30.07S
TERRELL        PTSUNNY   78  67  68 NE7       30.06F
WAXAHACHIE     PTSUNNY   75  68  78 NW10      30.08F
CLEBURNE       PTSUNNY   75  70  83 N10       30.10F
GRANBURY       MOSUNNY   76  65  68 N6        30.10F
$$

TXZ083>090-098>101-113>116-127>130-139>142-154-155-302000-
WESTERN NORTH TEXAS

CITY           SKY/WX    TMP DP  RH WIND       PRES   REMARKS
WICHITA FALLS  CLOUDY    69  58  67 N14       30.16F
WF-KICKAPOO    CLOUDY    70  58  66 N13       30.16F
VERNON         MOSUNNY   74  54  50 NE13      30.18F
ABILENE        CLOUDY    69  61  75 N14       30.18R
ABILENE-DYESS  CLOUDY    67  59  75 N9        30.18R
BRECKENRIDGE   PTSUNNY   76  65  68 N10       30.13S
GRAHAM         MOSUNNY   73  65  77 N10G16    30.13S
MINERAL WELLS  MOSUNNY   75  65  70 N13       30.10F
STEPHENVILLE   MOSUNNY   77  63  61 NE8       30.14S
COMANCHE       PTSUNNY   77  64  62 N9        30.12S
COLEMAN        CLOUDY    77  63  62 N7        30.16R
BRADY          MOSUNNY   77  63  61 NW10      30.14F
$$

TXZ143>147-156>162-174-175-302000-
CENTRAL TEXAS

CITY           SKY/WX    TMP DP  RH WIND       PRES   REMARKS
WACO           PTSUNNY   79  66  64 N9        30.08S
WACO-TSTC      MOSUNNY   81  66  61 NW9       30.07F
WACO-MCGREGOR  MOSUNNY   79  66  65 NW8       30.08F
HILLSBORO      MOSUNNY   77  64  63 NW8       30.08F
CORSICANA      PTSUNNY   79  66  64 N9        30.07S
MEXIA          PTSUNNY   79  69  71 CALM      30.06S
HEARNE         MOSUNNY   83  71  67 W6        30.05S
CAMERON        SUNNY     83  67  58 CALM      30.04F
TEMPLE         MOSUNNY   82  64  54 NW10      30.06F
KILLEEN        MOSUNNY   82  66  58 N13       30.07F
KILLEEN-SKYLRK MOSUNNY   81  64  57 N5        30.07F
FORT HOOD      MOSUNNY   80  67  63 N10       30.06F
HAMILTON       PTSUNNY   78  63  60 N8G16     30.12F
LAMPASAS       SUNNY     81  64  57 N12G17    30.09S
$$

TXZ095>097-106>112-122>126-135>138-148>153-164>167-302000-
EAST TEXAS

CITY           SKY/WX    TMP DP  RH WIND       PRES   REMARKS
PARIS          CLOUDY    72  64  78 N13G20    30.04R
SULPHUR SPRNGS PTSUNNY   78  69  72 N10       30.06S
MOUNT PLEASANT CLOUDY    76  66  70 NE5       30.04S
GILMER         CLOUDY   N/A N/A N/A W3        30.03S
MINEOLA        PTSUNNY   77  70  78 N5        30.05S
TYLER          PTSUNNY   76  67  73 NE3       30.04S
LONGVIEW       CLOUDY    75  67  76 SW3       30.02S
MARSHALL       CLOUDY    74  66  76 CALM      30.04R
PALESTINE      PTSUNNY   79  68  69 W3        30.05F
JACKSONVILLE   PTSUNNY   80  66  62 CALM      30.06S
NACOGDOCHES    MOSUNNY   82  66  57 N6        30.02S
LUFKIN         MOSUNNY   87  65  47 VRB5      30.02S
$$

SUPPLEMENTAL OBSERVATIONS (CENTRAL)

CITY           SKY/WX    TMP DP  RH WIND       PRES   REMARKS
$$

SUPPLEMENTAL OBSERVATIONS (WEST)

CITY           SKY/WX    TMP DP  RH WIND       PRES   REMARKS
$$

SUPPLEMENTAL OBSERVATIONS (EAST)

CITY           SKY/WX    TMP DP  RH WIND       PRES   REMARKS
$$

SUPPLEMENTAL OBSERVATIONS ARE A COLLECTION OF AUTOMATED INSTRUMENTS
THAT ARE MAINTAINED BY A VARIETY OF FEDERAL AND STATE AGENCIES.
CERTAIN ELEMENTS...SUCH AS HUMIDITY VALUES AND SUSTAINED WIND
SPEEDS...MAY BE APPROXIMATED.




USA.gov is the U.S. government's official web portal to all federal, state and local government web resources and services.